EZY6176 EGLL-EDDF

Flight info

Callsign EZY6176
Flight time 1h 18m
Altitude 35000
Route BPK Q295 MATCH DCT REDFA DCT TACHA DCT NOLRU DCT DIXAT DIXAT1A
Aircraft A20N/M-SDE2E3FGHIRWXY/LB1

Departure

Time 2026-05-05 10:46
Airport London Heathrow Airport (EGLL)

Arrival

Time 2026-05-05 12:05
Airport Frankfurt Main Airport (EDDF)
Time Latitude Longitude Altitude Speed Heading
2026-05-05 10:22 51.46931 -0.48719 89 ft 0 kts 360°
2026-05-05 10:36 51.46915 -0.48722 90 ft 2 kts 16°
2026-05-05 10:36 51.46910 -0.48724 89 ft 2 kts 22°
2026-05-05 10:36 51.46897 -0.48738 89 ft 2 kts 44°
2026-05-05 10:37 51.46887 -0.48759 88 ft 2 kts 63°
2026-05-05 10:37 51.46882 -0.48775 87 ft 2 kts 71°
2026-05-05 10:37 51.46878 -0.48800 86 ft 2 kts 81°
2026-05-05 10:37 51.46877 -0.48831 85 ft 1 kts 88°
2026-05-05 10:38 51.46877 -0.48838 85 ft 0 kts 88°
2026-05-05 10:41 51.46875 -0.48792 89 ft 6 kts 102°
2026-05-05 10:41 51.46866 -0.48766 86 ft 3 kts 136°
2026-05-05 10:41 51.46841 -0.48754 85 ft 7 kts 177°
2026-05-05 10:42 51.46771 -0.48752 88 ft 0 kts 180°
2026-05-05 10:42 51.46773 -0.48752 88 ft 6 kts 180°
2026-05-05 10:42 51.46821 -0.48752 87 ft 0 kts 180°
2026-05-05 10:44 51.46807 -0.48752 87 ft 7 kts 181°
2026-05-05 10:44 51.46748 -0.48753 87 ft 10 kts 179°
2026-05-05 10:44 51.46671 -0.48753 87 ft 8 kts 180°
2026-05-05 10:44 51.46610 -0.48765 90 ft 11 kts 195°
2026-05-05 10:45 51.46537 -0.48791 87 ft 9 kts 179°
2026-05-05 10:45 51.46491 -0.48745 86 ft 10 kts 127°
2026-05-05 10:45 51.46479 -0.48614 88 ft 13 kts 88°
2026-05-05 10:45 51.46480 -0.48385 87 ft 45 kts 90°
2026-05-05 10:46 51.46483 -0.47532 85 ft 107 kts 91°
2026-05-05 10:46 51.46487 -0.46024 88 ft 160 kts 88°
2026-05-05 10:46 51.46472 -0.44157 486 ft 165 kts 90°
2026-05-05 10:46 51.46514 -0.42357 1195 ft 159 kts 75°
2026-05-05 10:47 51.47024 -0.40693 1594 ft 180 kts 51°
2026-05-05 10:47 51.47913 -0.39100 1998 ft 200 kts 44°
2026-05-05 10:47 51.48918 -0.37459 2534 ft 215 kts 44°
2026-05-05 10:47 51.50019 -0.35648 2879 ft 239 kts 45°
2026-05-05 10:48 51.51169 -0.33682 2994 ft 248 kts 50°
2026-05-05 10:48 51.51997 -0.31213 3381 ft 255 kts 66°
2026-05-05 10:48 51.52611 -0.28546 3853 ft 254 kts 69°
2026-05-05 10:48 51.53187 -0.25872 3994 ft 252 kts 69°
2026-05-05 10:49 51.53844 -0.23272 3996 ft 251 kts 59°
2026-05-05 10:49 51.54960 -0.21151 3996 ft 249 kts 36°
2026-05-05 10:49 51.55939 -0.20193 4000 ft 250 kts 27°
2026-05-05 10:49 51.57531 -0.19035 3999 ft 252 kts 24°
2026-05-05 10:50 51.59167 -0.18034 4047 ft 251 kts 18°
2026-05-05 10:50 51.59722 -0.17756 4155 ft 252 kts 18°
2026-05-05 10:50 51.61434 -0.16956 4803 ft 258 kts 17°
2026-05-05 10:51 51.62021 -0.16688 5094 ft 259 kts 17°
2026-05-05 10:51 51.67815 -0.14017 5998 ft 264 kts 17°
2026-05-05 10:51 51.69580 -0.13197 5996 ft 264 kts 18°
2026-05-05 10:51 51.71345 -0.12374 5994 ft 264 kts 17°
2026-05-05 10:52 51.73069 -0.11378 6189 ft 265 kts 28°
2026-05-05 10:52 51.74494 -0.09494 6896 ft 267 kts 53°
2026-05-05 10:52 51.75317 -0.06819 7742 ft 271 kts 71°
2026-05-05 10:52 51.75790 -0.03836 8550 ft 277 kts 78°
2026-05-05 10:53 51.76077 -0.00740 9376 ft 282 kts 82°
2026-05-05 10:53 51.76285 0.02450 10173 ft 288 kts 83°
2026-05-05 10:53 51.76482 0.05766 10561 ft 308 kts 83°
2026-05-05 10:54 51.77005 0.13511 11218 ft 352 kts 82°
2026-05-05 10:54 51.77330 0.17545 11805 ft 361 kts 79°
2026-05-05 10:54 51.77836 0.21476 12576 ft 365 kts 76°
2026-05-05 10:54 51.78410 0.25512 13352 ft 369 kts 76°
2026-05-05 10:55 51.79022 0.29567 14111 ft 373 kts 75°
2026-05-05 10:55 51.79659 0.33647 14812 ft 378 kts 75°
2026-05-05 10:55 51.80316 0.37790 15455 ft 383 kts 75°
2026-05-05 10:55 51.80766 0.40620 15918 ft 386 kts 75°
2026-05-05 10:56 51.81664 0.46267 16663 ft 397 kts 76°
2026-05-05 10:56 51.82348 0.50608 17321 ft 401 kts 76°
2026-05-05 10:56 51.83035 0.54993 18041 ft 403 kts 76°
2026-05-05 10:56 51.83723 0.59412 18647 ft 407 kts 77°
2026-05-05 10:57 51.84418 0.63891 19172 ft 412 kts 77°
2026-05-05 10:57 51.85117 0.68408 19753 ft 415 kts 77°
2026-05-05 10:57 51.85820 0.72966 20253 ft 420 kts 77°
2026-05-05 10:57 51.86521 0.77522 20816 ft 423 kts 77°
2026-05-05 10:58 51.86761 0.79087 21014 ft 424 kts 77°
2026-05-05 10:59 51.90795 1.05564 23867 ft 444 kts 77°
2026-05-05 10:59 51.91520 1.10369 24278 ft 447 kts 77°
2026-05-05 10:59 51.92269 1.15350 24691 ft 451 kts 78°
2026-05-05 11:00 51.93012 1.20305 25093 ft 454 kts 78°
2026-05-05 11:00 51.93758 1.25296 25487 ft 457 kts 78°
2026-05-05 11:00 51.94495 1.30245 25876 ft 460 kts 78°
2026-05-05 11:00 51.95245 1.35296 26253 ft 462 kts 78°
2026-05-05 11:01 51.95997 1.40379 26629 ft 465 kts 78°
2026-05-05 11:01 51.96752 1.45496 27013 ft 468 kts 79°
2026-05-05 11:01 51.97509 1.50646 27347 ft 471 kts 79°
2026-05-05 11:01 51.98269 1.55827 27694 ft 474 kts 79°
2026-05-05 11:02 51.99029 1.61027 28143 ft 474 kts 79°
2026-05-05 11:02 51.99786 1.66227 28659 ft 472 kts 79°
2026-05-05 11:02 52.00539 1.71409 29152 ft 471 kts 79°
2026-05-05 11:02 52.01290 1.76595 29613 ft 471 kts 79°
2026-05-05 11:03 52.02036 1.81767 30053 ft 470 kts 79°
2026-05-05 11:03 52.02777 1.86929 30432 ft 470 kts 79°
2026-05-05 11:03 52.03517 1.92101 30764 ft 470 kts 79°
2026-05-05 11:03 52.04257 1.97289 31031 ft 472 kts 79°
2026-05-05 11:04 52.04995 2.02477 31437 ft 470 kts 79°
2026-05-05 11:04 52.05727 2.07645 31846 ft 468 kts 79°
2026-05-05 11:04 52.06455 2.12795 32231 ft 467 kts 79°
2026-05-05 11:04 52.07178 2.17932 32594 ft 466 kts 79°
2026-05-05 11:05 52.07898 2.23066 32929 ft 465 kts 78°
2026-05-05 11:05 52.08614 2.28186 33279 ft 464 kts 78°
2026-05-05 11:05 52.09325 2.33291 33601 ft 463 kts 78°
2026-05-05 11:05 52.10024 2.38330 33920 ft 462 kts 78°
2026-05-05 11:06 52.10729 2.43427 34193 ft 461 kts 78°
2026-05-05 11:06 52.11443 2.48526 34393 ft 462 kts 77°
2026-05-05 11:06 52.12278 2.53588 34557 ft 464 kts 75°
2026-05-05 11:06 52.13212 2.58610 34781 ft 464 kts 73°
2026-05-05 11:07 52.14189 2.63609 34945 ft 465 kts 73°
2026-05-05 11:07 52.16166 2.73653 34974 ft 465 kts 73°
2026-05-05 11:08 52.18095 2.83687 34967 ft 464 kts 73°
2026-05-05 11:08 52.19990 2.93747 34969 ft 464 kts 74°
2026-05-05 11:09 52.21870 3.03833 34969 ft 466 kts 74°
2026-05-05 11:09 52.23741 3.13960 34967 ft 466 kts 76°
2026-05-05 11:10 52.24511 3.24383 34977 ft 461 kts 95°
2026-05-05 11:10 52.24081 3.29540 34977 ft 457 kts 106°
2026-05-05 11:10 52.23172 3.34498 34972 ft 456 kts 111°
2026-05-05 11:11 52.20955 3.44177 34971 ft 456 kts 114°
2026-05-05 11:11 52.18578 3.53797 34971 ft 457 kts 115°
2026-05-05 11:12 52.16226 3.63349 34961 ft 458 kts 114°
2026-05-05 11:12 52.13879 3.72984 34961 ft 458 kts 114°
2026-05-05 11:13 52.11535 3.82627 34949 ft 458 kts 114°
2026-05-05 11:13 52.09188 3.92246 34949 ft 458 kts 114°
2026-05-05 11:14 52.06832 4.01851 34942 ft 458 kts 115°
2026-05-05 11:14 52.04457 4.11492 34940 ft 458 kts 115°
2026-05-05 11:15 52.02096 4.21029 34936 ft 458 kts 115°
2026-05-05 11:15 51.99712 4.30620 34939 ft 458 kts 115°
2026-05-05 11:16 51.97319 4.40208 34940 ft 458 kts 115°
2026-05-05 11:16 51.94922 4.49774 34942 ft 457 kts 116°
2026-05-05 11:17 51.92529 4.59283 34930 ft 454 kts 116°
2026-05-05 11:17 51.90134 4.68748 34939 ft 454 kts 116°
2026-05-05 11:18 51.87730 4.78210 34929 ft 454 kts 116°
2026-05-05 11:18 51.85321 4.87655 34911 ft 454 kts 117°
2026-05-05 11:19 51.82900 4.97106 34929 ft 455 kts 117°
2026-05-05 11:19 51.80470 5.06551 34930 ft 455 kts 117°
2026-05-05 11:20 51.78034 5.15987 34929 ft 455 kts 117°
2026-05-05 11:20 51.75587 5.25423 34939 ft 455 kts 117°
2026-05-05 11:21 51.73149 5.34784 34913 ft 455 kts 118°
2026-05-05 11:21 51.70680 5.44218 34920 ft 457 kts 118°
2026-05-05 11:22 51.68200 5.53664 34921 ft 458 kts 118°
2026-05-05 11:22 51.65718 5.63082 34910 ft 456 kts 118°
2026-05-05 11:23 51.63232 5.72474 34910 ft 455 kts 118°
2026-05-05 11:23 51.60744 5.81832 34903 ft 455 kts 118°
2026-05-05 11:24 51.58243 5.91193 34913 ft 456 kts 118°
2026-05-05 11:24 51.55732 6.00560 34912 ft 456 kts 118°
2026-05-05 11:25 51.53215 6.09915 34911 ft 456 kts 118°
2026-05-05 11:25 51.50692 6.19255 34909 ft 456 kts 118°
2026-05-05 11:26 51.48287 6.28619 34903 ft 458 kts 116°
2026-05-05 11:26 51.45963 6.38175 34903 ft 461 kts 116°
2026-05-05 11:27 51.43632 6.47758 34899 ft 461 kts 116°
2026-05-05 11:27 51.41283 6.57306 34880 ft 460 kts 116°
2026-05-05 11:28 51.38918 6.66834 34885 ft 460 kts 117°
2026-05-05 11:28 51.36544 6.76344 34877 ft 460 kts 117°
2026-05-05 11:29 51.34165 6.85837 34881 ft 460 kts 117°
2026-05-05 11:29 51.31776 6.95329 34883 ft 460 kts 117°
2026-05-05 11:30 51.29384 7.04795 34883 ft 459 kts 117°
2026-05-05 11:30 51.26621 7.13827 34881 ft 448 kts 132°
2026-05-05 11:30 51.24531 7.17430 34879 ft 438 kts 145°
2026-05-05 11:31 51.22166 7.20483 34884 ft 435 kts 148°
2026-05-05 11:31 51.18141 7.25303 34873 ft 435 kts 149°
2026-05-05 11:32 51.13276 7.31050 34867 ft 435 kts 149°
2026-05-05 11:32 51.07619 7.37715 34866 ft 434 kts 149°
2026-05-05 11:33 51.03556 7.42491 34862 ft 432 kts 149°
2026-05-05 11:33 50.98752 7.48123 34866 ft 432 kts 149°
2026-05-05 11:34 50.93911 7.53784 34866 ft 432 kts 149°
2026-05-05 11:34 50.89069 7.59432 34861 ft 433 kts 149°
2026-05-05 11:35 50.84215 7.65077 34867 ft 433 kts 149°
2026-05-05 11:35 50.79693 7.71477 34869 ft 443 kts 135°
2026-05-05 11:36 50.76564 7.80009 34771 ft 459 kts 115°
2026-05-05 11:36 50.75772 7.84946 34285 ft 469 kts 102°
2026-05-05 11:36 50.75628 7.90061 33790 ft 477 kts 90°
2026-05-05 11:36 50.76149 7.95264 33213 ft 484 kts 78°
2026-05-05 11:37 50.77335 8.00268 32640 ft 489 kts 65°
2026-05-05 11:37 50.79147 8.04835 32106 ft 493 kts 52°
2026-05-05 11:37 50.81510 8.08754 31570 ft 493 kts 40°
2026-05-05 11:37 50.84266 8.11984 31042 ft 492 kts 32°
2026-05-05 11:38 50.87234 8.14644 30520 ft 491 kts 24°
2026-05-05 11:38 50.90431 8.16513 30009 ft 487 kts 13°
2026-05-05 11:38 50.93761 8.17396 29427 ft 484 kts
2026-05-05 11:38 50.97108 8.17225 28853 ft 479 kts 349°
2026-05-05 11:39 51.00337 8.16017 28280 ft 475 kts 338°
2026-05-05 11:39 51.03330 8.13847 27725 ft 472 kts 326°
2026-05-05 11:39 51.05983 8.10832 27194 ft 469 kts 315°
2026-05-05 11:39 51.08210 8.07076 26901 ft 465 kts 304°
2026-05-05 11:40 51.09967 8.02783 26855 ft 462 kts 295°
2026-05-05 11:40 51.11227 7.98176 26862 ft 458 kts 286°
2026-05-05 11:40 51.12205 7.93369 26863 ft 457 kts 284°
2026-05-05 11:40 51.13120 7.88531 26862 ft 456 kts 283°
2026-05-05 11:41 51.13893 7.83627 26720 ft 453 kts 277°
2026-05-05 11:41 51.14217 7.78662 26474 ft 450 kts 268°
2026-05-05 11:41 51.13995 7.73706 26215 ft 449 kts 258°
2026-05-05 11:41 51.13194 7.68959 25965 ft 437 kts 247°
2026-05-05 11:42 51.11889 7.64662 25380 ft 430 kts 237°
2026-05-05 11:42 51.10078 7.60816 24269 ft 438 kts 225°
2026-05-05 11:42 51.07723 7.57696 23227 ft 444 kts 212°
2026-05-05 11:42 51.04964 7.55517 22477 ft 441 kts 200°
2026-05-05 11:43 51.02082 7.54010 22051 ft 431 kts 197°
2026-05-05 11:43 50.99224 7.52660 21661 ft 426 kts 196°
2026-05-05 11:43 50.96382 7.51328 21270 ft 426 kts 196°
2026-05-05 11:43 50.93544 7.49977 20942 ft 425 kts 197°
2026-05-05 11:44 50.90686 7.48737 20861 ft 425 kts 191°
2026-05-05 11:44 50.87747 7.48359 20767 ft 424 kts 178°
2026-05-05 11:44 50.84853 7.49187 20035 ft 425 kts 162°
2026-05-05 11:44 50.82156 7.51066 19113 ft 431 kts 154°
2026-05-05 11:45 50.79534 7.53250 18701 ft 421 kts 153°
2026-05-05 11:45 50.76966 7.55406 18293 ft 415 kts 153°
2026-05-05 11:45 50.74409 7.57530 17832 ft 415 kts 154°
2026-05-05 11:45 50.71851 7.59633 17397 ft 413 kts 154°
2026-05-05 11:46 50.69308 7.61710 16976 ft 410 kts 154°
2026-05-05 11:46 50.66779 7.63768 16572 ft 408 kts 154°
2026-05-05 11:46 50.64264 7.65807 16155 ft 405 kts 154°
2026-05-05 11:46 50.61769 7.67827 15871 ft 403 kts 154°
2026-05-05 11:47 50.59285 7.69833 15356 ft 399 kts 154°
2026-05-05 11:47 50.56829 7.71814 14915 ft 395 kts 154°
2026-05-05 11:47 50.54387 7.73781 14518 ft 393 kts 154°
2026-05-05 11:47 50.52023 7.75965 14109 ft 395 kts 146°
2026-05-05 11:48 50.48491 7.82390 13368 ft 392 kts 118°
2026-05-05 11:48 50.47394 7.86260 13106 ft 392 kts 114°
2026-05-05 11:48 50.46378 7.90221 12827 ft 391 kts 113°
2026-05-05 11:49 50.45383 7.94190 12573 ft 390 kts 113°
2026-05-05 11:49 50.44394 7.98143 12306 ft 388 kts 113°
2026-05-05 11:49 50.43409 8.02077 12056 ft 387 kts 113°
2026-05-05 11:49 50.42413 8.06044 11799 ft 385 kts 113°
2026-05-05 11:50 50.41434 8.09940 11546 ft 384 kts 113°
2026-05-05 11:50 50.40467 8.13780 11297 ft 382 kts 113°
2026-05-05 11:50 50.39493 8.17640 11048 ft 381 kts 113°
2026-05-05 11:50 50.38516 8.21505 10871 ft 380 kts 113°
2026-05-05 11:51 50.37540 8.25357 10848 ft 379 kts 113°
2026-05-05 11:51 50.36567 8.29188 10840 ft 379 kts 113°
2026-05-05 11:51 50.35593 8.33025 10831 ft 378 kts 113°
2026-05-05 11:51 50.34618 8.36857 10839 ft 379 kts 113°
2026-05-05 11:52 50.33644 8.40683 10840 ft 378 kts 113°
2026-05-05 11:52 50.32664 8.44517 10838 ft 378 kts 113°
2026-05-05 11:52 50.31690 8.48328 10838 ft 378 kts 113°
2026-05-05 11:52 50.30711 8.52148 10834 ft 378 kts 113°
2026-05-05 11:53 50.29733 8.55959 10837 ft 378 kts 113°
2026-05-05 11:53 50.28752 8.59774 10832 ft 378 kts 113°
2026-05-05 11:53 50.27772 8.63579 10832 ft 378 kts 113°
2026-05-05 11:53 50.26787 8.67400 10834 ft 378 kts 113°
2026-05-05 11:54 50.25805 8.71202 10795 ft 378 kts 113°
2026-05-05 11:54 50.24820 8.75005 10560 ft 377 kts 113°
2026-05-05 11:54 50.23839 8.78787 10313 ft 376 kts 113°
2026-05-05 11:54 50.22894 8.82585 10074 ft 375 kts 109°
2026-05-05 11:55 50.22336 8.86555 9831 ft 375 kts 97°
2026-05-05 11:55 50.22465 8.90561 9571 ft 365 kts 79°
2026-05-05 11:55 50.23167 8.94296 9327 ft 352 kts 72°
2026-05-05 11:55 50.23976 8.97839 9078 ft 339 kts 71°
2026-05-05 11:56 50.24775 9.01236 8824 ft 328 kts 71°
2026-05-05 11:56 50.25547 9.04524 8566 ft 317 kts 71°
2026-05-05 11:56 50.26297 9.07729 8321 ft 308 kts 71°
2026-05-05 11:56 50.26988 9.10824 8080 ft 298 kts 77°
2026-05-05 11:57 50.27074 9.13964 7836 ft 285 kts 103°
2026-05-05 11:57 50.26326 9.16729 7396 ft 282 kts 128°
2026-05-05 11:57 50.24833 9.18758 6767 ft 285 kts 153°
2026-05-05 11:57 50.23000 9.19913 6173 ft 290 kts 163°
2026-05-05 11:58 50.20995 9.20236 5525 ft 294 kts 187°
2026-05-05 11:58 50.19051 9.19237 4895 ft 297 kts 208°
2026-05-05 11:58 50.17451 9.17198 4320 ft 299 kts 229°
2026-05-05 11:58 50.16185 9.14678 4053 ft 290 kts 233°
2026-05-05 11:59 50.15011 9.12241 4012 ft 273 kts 229°
2026-05-05 11:59 50.13929 9.09902 4014 ft 262 kts 245°
2026-05-05 11:59 50.13410 9.07192 4006 ft 263 kts 259°
2026-05-05 11:59 50.13139 9.04349 4005 ft 265 kts 262°
2026-05-05 12:00 50.12916 9.01484 4010 ft 266 kts 262°
2026-05-05 12:00 50.12697 8.98623 4011 ft 266 kts 262°
2026-05-05 12:00 50.12480 8.95764 4014 ft 266 kts 263°
2026-05-05 12:00 50.12139 8.92929 4009 ft 264 kts 253°
2026-05-05 12:01 50.11555 8.90306 4006 ft 249 kts 248°
2026-05-05 12:01 50.10955 8.87845 4014 ft 236 kts 248°
2026-05-05 12:01 50.10381 8.85471 3983 ft 234 kts 249°
2026-05-05 12:01 50.09844 8.83111 3797 ft 229 kts 250°
2026-05-05 12:02 50.09312 8.80820 3440 ft 227 kts 249°
2026-05-05 12:02 50.08756 8.78525 3058 ft 225 kts 249°
2026-05-05 12:02 50.08216 8.76270 2737 ft 220 kts 249°
2026-05-05 12:02 50.07694 8.74077 2442 ft 213 kts 249°
2026-05-05 12:03 50.07185 8.71948 2164 ft 206 kts 249°
2026-05-05 12:03 50.06695 8.69898 1883 ft 198 kts 249°
2026-05-05 12:03 50.06223 8.67921 1638 ft 191 kts 249°
2026-05-05 12:03 50.05767 8.66015 1386 ft 185 kts 249°
2026-05-05 12:04 50.05328 8.64178 1141 ft 176 kts 249°
2026-05-05 12:04 50.04916 8.62453 924 ft 165 kts 249°
2026-05-05 12:04 50.04526 8.60822 711 ft 157 kts 248°
2026-05-05 12:04 50.04161 8.59309 502 ft 142 kts 249°
2026-05-05 12:05 50.03840 8.57939 374 ft 125 kts 245°
2026-05-05 12:05 50.03595 8.56936 361 ft 75 kts 249°
2026-05-05 12:05 50.03470 8.56405 367 ft 38 kts 250°
2026-05-05 12:05 50.03430 8.56151 366 ft 21 kts 276°
2026-05-05 12:06 50.03449 8.55961 360 ft 13 kts 279°
2026-05-05 12:06 50.03457 8.55886 356 ft 0 kts 279°
2026-05-05 12:06 50.03459 8.55876 356 ft 7 kts 279°
2026-05-05 12:06 50.03469 8.55779 361 ft 7 kts 283°
2026-05-05 12:07 50.03496 8.55704 359 ft 9 kts 324°
2026-05-05 12:07 50.03549 8.55724 364 ft 10 kts 49°
2026-05-05 12:07 50.03583 8.55849 364 ft 17 kts 69°
2026-05-05 12:07 50.03625 8.56032 362 ft 18 kts 71°
2026-05-05 12:08 50.03666 8.56206 363 ft 16 kts 68°